Location: Brodeslavy
(49.9527°N, 13.5567°E)
Time: 21:25:11
(UTC+00:00)

NOSS 3-1 (C) - Pass Details

Date: 17 June 2025
Orbit: 625 x 1577 km, 63.4° (Epoch: 18 June)

Event Time Altitude Azimuth Distance (km) Brightness Sun altitude
Rises 22:00:21 0° 315° (NW) 3,792 7.7 -15.2°
Reaches altitude 10° 22:02:49 10° 311° (NW) 2,964 6.9 -15.3°
Maximum altitude 22:09:46 53° 237° (WSW) 1,553 4.4 -15.6°
Enters shadow 22:15:33 21° 171° (S) 2,743 5.2 -15.8°
